{"data":{"norad_id":57761,"epoch":"2026-05-25T02:20:16.318176Z","epoch_age_seconds":69649,"freshness":"FRESH","line1":"1 57761U 23133E   26145.09741109  .00000102  00000+0  80055-4 0  9991","line2":"2 57761  81.0007  30.1059 0006394  92.9164 267.2724 13.85097923137799","mean_motion":13.85097923,"eccentricity":0.0006394,"inclination_deg":81.0007,"raan_deg":30.1059,"arg_perigee_deg":92.9164,"mean_anomaly_deg":267.2724,"bstar":8.0055e-5,"rev_number":13779,"period_min":103.96376863241,"perigee_km":941.17756827782,"apogee_km":950.54349632212,"semimajor_km":7323.9975323,"source":"CELESTRAK","updated_at":"2026-05-25T13:38:00.235904Z"}}